Погода Ловозеро

Поиск расширенной информации на нашем сайте:

Полезная информация:

Новости сайта



02.01.2020
Опубликован Долгосрочный прогноз погоды по городам России и ближнего зарубежья на январь 2020 года.
Карты: Прогноз на январь и февраль 2020 года, Сравнение прогнозируемой аномалии приземной температуры воздуха на январь 2020 года по разным моделям.




Погода Ловозеро - сегодня

Время (UTC), дата Ветер
(°,м/с) 
Видим.   Явления Облачность Т
(°С)
Тd
(°С)
f(%) Тe
(°С)
Pmin
(гПа)
dP
(гПа)
Po
(мм)
O2
(г/м3)
Тmin Tmax R s Состояние
почвы
00 29.11.20 тихо ()   20000 м    8/3 1000 м средняя, верхняя 
[Sc|Ac trans|Ci fib]
-11.1 -11.8 95 -11  1027.8  -0.8  755  318           
03 29.11.20 тихо () -1  4000 м  дымка [диам. сложн. отлож. 5 мм]  9/4 1000 м средняя 
[Sc|Ac trans]
-6.7 -7 98 -7  1025.2  -2.2  753  312  -16.1         
06 29.11.20 080 (В) 1-2  4000 м  дымка  8/4 1000 м средняя, верхняя 
[Sc|Ac trans|Ci fib]
-5.4 -5.6 98 -5  1026  0.9  754  310  -15.3      26  равномерный
сухой снег
100% 
09 29.11.20 200 (Ю) 1-2  4000 м  дымка  8/3 1000 м средняя, верхняя 
[Sc|Ac trans|Ci fib]
-9.5 -10.1 95 -9  1026.6  0.2  754  316           
12 29.11.20 340 (С) 2-3  4000 м  дымка  5/0 средняя, верхняя 
[Ac trans|Ci fib]
-9.3 -9.8 96 -11  1025.9  -0.6  754  315           
15 29.11.20 тихо ()   20000 м    8/0 средняя, верхняя 
[Ac trans|Ci fib]
-14.1 -15.1 92 -14  1025.9  -0.4  753  321           
18 29.11.20 310 (СЗ) 1-1  4000 м  дымка [диам. сложн. отлож. 5 мм]  8/0 средняя, верхняя 
[Ac trans|Cs]
-13.7 -14.7 92 -14  1024.7  -1.2  752  320    -5       
21 29.11.20 180 (Ю) 1-2  20000 м    9/0 средняя, верхняя 
[Ac trans|Cc]
-10.9 -11.6 95 -11  1023.9  -0.5  752  317           
00 30.11.20 200 (Ю) 1-3  20000 м    9/0 средняя, верхняя 
[Ac trans|Cc]
-12.4 -13.2 94 -12  1023  -1  751  318           
03 30.11.20 290 (З) 1-2  20000 м  [диам. сложн. отлож. 5 мм]  9/0 средняя, верхняя 
[Ac trans|Cs]
-13.9 -14.9 92 -14  1022.2  -0.9  751  320  -14.3         
06 30.11.20 010 (С) 1-2  20000 м    9/0 верхняя 
[Cs]
-13 -13.9 93 -13  1021.4  -0.7  750  319  -14.9      26  равномерный
сухой снег
100% 
09 30.11.20 тихо ()   20000 м  [диам. сложн. отлож. 5 мм]  9/3 1000 м средняя, верхняя 
[Sc|Ac trans|Ci fib]
-12.4 -13.3 93 -12  1020.7  -0.7  749  318           
12 30.11.20 160 (Ю) 5-8  20000 м    9/6 600 м кучево-дожд., средняя 
[Cb cap|Ac trans]
-3.4 -4.5 92 -7  1018.8  -1.1  749  306           
15 30.11.20 190 (Ю) 5-9{13}  20000 м  позёмок  9/6 600 м кучево-дожд., средняя 
[Cb cap|Ac trans]
-2.9 -5.1 85 -6  1017.4  -1.3  748  305           
18 30.11.20 200 (Ю) 1-3{10}  20000 м    10/5 600 м кучево-дожд., средняя 
[Cb cap|Ac As]
-2.2 -4.7 83 -2  1015.5  -1.9  746  304    -1.2       
21 30.11.20 210 (ЮЗ) 4-8{11}  20000 м    10/8 600 м кучево-дожд., средняя 
[Cb cap|Ac As]
-0.8 -3.7 81 -3  1013.8  -1.5  745  302           
00 01.12.20 200 (Ю) 5-8{10}  20000 м  позёмок  9/8 600 м кучево-дожд., средняя, верхняя 
[Cb cap|Ac trans|Ci fib]
-0.8 -3.2 84 -4  1012.4  -1.4  744  301           
03 01.12.20 170 (Ю) 4-7{10}  20000 м    9/9 600 м кучево-дожд. 
[Cb cap]
-0.1 -2.8 82 -3  1011.1  -1.2  743  300  -3.3         
06 01.12.20 160 (Ю) 2-5{12}  20000 м  {ливн. осадки}  9/8 600 м кучево-дожд., средняя 
[Cb cap|Ac trans]
-0.5 -3 83 -1  1009.8  -1.3  742  300  -2.6    0.0  24  равномерный
сухой снег
100% 
09 01.12.20 200 (Ю) 3-6  20000 м    10/0 средняя 
[Ac As]
-0.2 -3.1 81 -2  1008.7  -1.1  741  299           
12 01.12.20 220 (ЮЗ) 1-2  20000 м    10/0 средняя 
[Ac As]
-0.7 -3.4 82 1008.7  741  300           
15 01.12.20 200 (Ю) 2-4  20000 м    10/3 1000 м средняя 
[Sc|Ac As]
-0.7 -3.6 81 -2  1009.2  0.5  742  300      0.0     
21 01.12.20 250 (З) 2-4  20000 м  {ливн. осадки}  10/8 600 м кучево-дожд., средняя 
[Cb cap|Ac As]
-1.4 -2.8 90 -2  1013.9  2.8  745  302           
00 02.12.20 250 (З) 20000 м  {ливн. осадки}  8/0 средняя 
[Ac trans]
-2.5 -2.7 99 -5  1017.1  3.1  747  304           
03 02.12.20 280 (З) 2-3  4000 м  дымка  1/0 верхняя 
[Ci fib]
-4.6 -4.8 98 -6  1018.9  1.6  749  307  -4.8    0.0     
Время (UTC), дата Ветер
(°,м/с) 
Видим.   Явления Облачность Т
(°С)
Тd
(°С)
f(%) Тe
(°С)
Pmin
(гПа)
dP
(гПа)
Po
(мм)
O2
(г/м3)
Тmin Tmax R s Состояние
почвы

Для получения пояснительной информации подведите курсор к названию столбца.

ПОГОДА Ловозеро - архив

Всё, что Вы хотите узнать о погоде Ловозеро - удобно и подробно!

Выберите нужную дату (начиная с 1 января 2019* года) и нажмите кнопку "Найти".
Будут отображены архивные сводки погоды по пункту Ловозеро, начиная с указанной даты.


Отображать данные в формате CSV (для использования в таблицах Excel)


Внимание! Наш архив погоды предназначен исключительно для личного некоммерческого использования в познавательных целях. Если Вам необходимы официальные справки о состоянии погоды (для производственных, юридических, коммерческих и т.п. целей), обращайтесь в органы Росгидромета.

*Примечание: данная дата относится к архиву по метеостанциям СССР (Россия, СНГ, Балтия).
Архив по метеостанциям Зарубежной Европы и Азии (кроме Китая) хранится 10 дней, по другим регионам земного шара (Китай, Африка, Америка, Австралия, Океания) - 1 день.

Ловозеро - район местоположения метеостанции


Название, широта, долгота, высота метеостанции:
Ловозеро 68°ш. 35°д. 162 м над ур. моря [Российская Федерация]

Дополнительная информация

В oтличие oт бoльшинства пoгoдных сайтoв мы публикуем пoдрoбную метеoинфoрмацию в детальнoм прoфессиoнальнoм фoрмате.

Характеристики температуры и влажнoсти вoздуха измеряются на высoте 2 м в тени вдали oт зданий и деревьев.
Скoрoсть ветра измеряется на высoте 10 м (на урoвне рoста челoвека скoрoсть ветра ниже в 1.5-2 раза). Если метеoстанция нахoдится в гoрoде или в лесу, тo скoрoсть ветра занижена на 2-4 м/с пo сравнению с oткрытым местoм. Скoрoсть ветра над акватoриями крупных рек и oзёр, а также на вершинах хoлмoв на 2-5 м/с выше, чем в oбычных услoвиях.
Атмoсфернoе давление в разных тoчках местнoсти мoжет значительнo oтличаться oт давления на метеoстанции, в зависимoсти oт услoвий рельефа (при пoдъёме на 10 м давление пoнижается примернo на 1 мм рт.ст.).